This is the latest recevied weather packets stored in our database for station/object MB7UIK. If no packets are shown the sender has not sent any weather packets the latest 1 day(s).
| Time | Temp. | Humidity | Pressure | Rain* | Wind** | Luminosity | Snow |
|---|---|---|---|---|---|---|---|
| 1777969785 | 13.33° C | 100% | 1012.2 hPa | 0 mm | 1.34 m/s, 5° | - | - |
| 1777969724 | 13.33° C | 100% | 1012.1 hPa | 0 mm | 2.24 m/s, 331° | - | - |
| 1777969664 | 13.33° C | 100% | 1012.2 hPa | 0 mm | 1.34 m/s, 5° | - | - |
| 1777969632 | 13.33° C | 100% | 1012.2 hPa | 0 mm | 1.34 m/s, 5° | - | - |
| 1777969604 | 13.89° C | 100% | 1012.3 hPa | 0 mm | 2.68 m/s, 38° | - | - |
| 1777969545 | 13.89° C | 100% | 1012.2 hPa | 0 mm | 2.24 m/s, 350° | - | - |
| 1777969485 | 13.89° C | 100% | 1012.2 hPa | 0 mm | 3.13 m/s, 9° | - | - |
| 1777969425 | 13.89° C | 100% | 1012.3 hPa | 0 mm | 2.68 m/s, 348° | - | - |
| 1777969365 | 13.89° C | 100% | 1012.3 hPa | 0 mm | 2.24 m/s, 355° | - | - |
| 1777969333 | 13.89° C | 100% | 1012.3 hPa | 0 mm | 2.24 m/s, 355° | - | - |
| 1777969306 | 13.89° C | 100% | 1012.3 hPa | 0 mm | 1.34 m/s, 5° | - | - |
| 1777969246 | 13.89° C | 100% | 1012.2 hPa | 0 mm | 1.79 m/s, 9° | - | - |
| 1777969186 | 13.89° C | 100% | 1012.2 hPa | 0 mm | 2.24 m/s, 17° | - | - |
| 1777969126 | 13.89° C | 100% | 1012.2 hPa | 0 mm | 0.89 m/s, 30° | - | - |
| 1777969066 | 13.89° C | 100% | 1012.2 hPa | 0 mm | 2.68 m/s, 355° | - | - |
| 1777969033 | 13.89° C | 100% | 1012.2 hPa | 0 mm | 2.68 m/s, 355° | - | - |
| 1777969004 | 13.89° C | 100% | 1012.2 hPa | 0 mm | 3.58 m/s, 37° | - | - |
| 1777968944 | 13.89° C | 100% | 1012.2 hPa | 0 mm | 2.24 m/s, 55° | - | - |
| 1777968884 | 13.89° C | 100% | 1012.2 hPa | 0 mm | 1.34 m/s, 56° | - | - |
| 1777968824 | 13.89° C | 100% | 1012.2 hPa | 0 mm | 0.89 m/s, 342° | - | - |
| 1777968765 | 13.89° C | 100% | 1012.2 hPa | 0 mm | 1.34 m/s, 350° | - | - |
| 1777968731 | 13.89° C | 100% | 1012.2 hPa | 0 mm | 1.34 m/s, 350° | - | - |
| 1777968705 | 13.89° C | 100% | 1012.2 hPa | 0 mm | 3.58 m/s, 81° | - | - |
| 1777968645 | 13.89° C | 100% | 1012.2 hPa | 0 mm | 0.89 m/s, 69° | - | - |
| 1777968585 | 13.89° C | 100% | 1012.2 hPa | 0 mm | 3.13 m/s, 9° | - | - |
* Rain latest hour (hover to see other rain measurements)
** Current wind speed in m/s (hover to see current wind gust speed)